Time,TemperatureF,DewpointF,PressureIn,WindDirection,WindDirectionDegrees,WindSpeedMPH,WindSpeedGustMPH,Humidity,HourlyPrecipIn,Conditions,Clouds,dailyrainin,SoftwareType,DateUTC
2013-10-04 00:00:00,63.4,58.8,29.98,NW,315,1.1,1.1,85,0.00,,,0.00,WUHU216HW,2013-10-04 04:00:00,
2013-10-04 00:30:00,61.6,57.4,29.98,NW,315,1.1,1.1,86,0.00,,,0.00,WUHU216HW,2013-10-04 04:30:00,
2013-10-04 00:31:00,61.6,57.4,29.98,NW,315,1.1,1.1,86,0.00,,,0.00,WUHU216HW,2013-10-04 04:31:00,
2013-10-04 00:32:00,61.6,57.4,29.98,NW,315,1.1,1.1,86,0.00,,,0.00,WUHU216HW,2013-10-04 04:32:00,
2013-10-04 00:34:00,61.6,57.4,29.98,NW,315,1.1,1.1,86,0.00,,,0.00,WUHU216HW,2013-10-04 04:34:00,
2013-10-04 00:35:00,61.6,57.4,29.98,NW,315,1.1,1.1,86,0.00,,,0.00,WUHU216HW,2013-10-04 04:35:00,
2013-10-04 00:37:00,61.6,57.4,29.98,NW,315,1.1,1.1,86,0.00,,,0.00,WUHU216HW,2013-10-04 04:37:00,
2013-10-04 01:00:00,61.8,58.8,29.98,NW,315,0.2,0.2,90,0.00,,,0.00,WUHU216HW,2013-10-04 05:00:00,
2013-10-04 01:01:00,61.8,58.8,29.98,NW,315,0.2,0.2,90,0.00,,,0.00,WUHU216HW,2013-10-04 05:01:00,
2013-10-04 01:04:00,61.8,58.8,29.98,NW,315,0.2,0.2,90,0.00,,,0.00,WUHU216HW,2013-10-04 05:04:00,
2013-10-04 01:07:00,61.8,58.8,29.98,NW,315,0.2,0.2,90,0.00,,,0.00,WUHU216HW,2013-10-04 05:07:00,
2013-10-04 01:30:00,61.6,58.6,29.98,NW,315,0.7,0.7,90,0.00,,,0.00,WUHU216HW,2013-10-04 05:30:00,
2013-10-04 01:31:00,61.6,58.6,29.98,NW,315,0.7,0.7,90,0.00,,,0.00,WUHU216HW,2013-10-04 05:31:00,
2013-10-04 01:36:00,61.6,58.6,29.98,NW,315,0.7,0.7,90,0.00,,,0.00,WUHU216HW,2013-10-04 05:36:00,
2013-10-04 02:00:00,58.9,55.9,29.97,WNW,293,0.0,0.0,90,0.00,,,0.00,WUHU216HW,2013-10-04 06:00:00,
2013-10-04 02:05:00,58.9,55.9,29.97,WNW,293,0.0,0.0,90,0.00,,,0.00,WUHU216HW,2013-10-04 06:05:00,
2013-10-04 02:30:00,59.3,56.0,29.97,WNW,293,0.0,0.0,89,0.00,,,0.00,WUHU216HW,2013-10-04 06:30:00,
2013-10-04 02:35:00,59.3,56.0,29.97,WNW,293,0.0,0.0,89,0.00,,,0.00,WUHU216HW,2013-10-04 06:35:00,
2013-10-04 03:00:00,59.1,57.3,29.96,NW,315,0.9,0.9,94,0.00,,,0.00,WUHU216HW,2013-10-04 07:00:00,
2013-10-04 03:05:00,59.1,57.3,29.96,NW,315,0.9,0.9,94,0.00,,,0.00,WUHU216HW,2013-10-04 07:05:00,
2013-10-04 03:30:00,57.7,55.4,29.96,NW,315,0.0,0.0,92,0.00,,,0.00,WUHU216HW,2013-10-04 07:30:00,
2013-10-04 03:35:00,57.7,55.4,29.96,NW,315,0.0,0.0,92,0.00,,,0.00,WUHU216HW,2013-10-04 07:35:00,
2013-10-04 04:00:00,60.6,57.9,29.96,WNW,293,0.0,0.0,91,0.00,,,0.00,WUHU216HW,2013-10-04 08:00:00,
2013-10-04 04:05:00,60.6,57.9,29.96,WNW,293,0.0,0.0,91,0.00,,,0.00,WUHU216HW,2013-10-04 08:05:00,
2013-10-04 04:30:00,57.9,55.8,29.96,WNW,293,0.0,0.0,93,0.00,,,0.00,WUHU216HW,2013-10-04 08:30:00,
2013-10-04 04:35:00,57.9,55.8,29.96,WNW,293,0.0,0.0,93,0.00,,,0.00,WUHU216HW,2013-10-04 08:35:00,
2013-10-04 05:00:00,59.8,56.8,29.96,NW,315,0.0,0.0,90,0.00,,,0.00,WUHU216HW,2013-10-04 09:00:00,
2013-10-04 05:05:00,59.8,56.8,29.96,NW,315,0.0,0.0,90,0.00,,,0.00,WUHU216HW,2013-10-04 09:05:00,
2013-10-04 05:30:00,57.9,56.1,29.96,WNW,293,0.0,0.0,94,0.00,,,0.00,WUHU216HW,2013-10-04 09:30:00,
2013-10-04 05:35:00,57.9,56.1,29.96,WNW,293,0.0,0.0,94,0.00,,,0.00,WUHU216HW,2013-10-04 09:35:00,
2013-10-04 06:00:00,59.1,56.7,29.96,NW,315,0.0,0.0,92,0.00,,,0.00,WUHU216HW,2013-10-04 10:00:00,
2013-10-04 06:05:00,59.1,56.7,29.96,NW,315,0.0,0.0,92,0.00,,,0.00,WUHU216HW,2013-10-04 10:05:00,
2013-10-04 06:30:00,57.9,56.1,29.96,NW,315,0.0,0.0,94,0.00,,,0.00,WUHU216HW,2013-10-04 10:30:00,
2013-10-04 06:35:00,57.9,56.1,29.96,NW,315,0.0,0.0,94,0.00,,,0.00,WUHU216HW,2013-10-04 10:35:00,
2013-10-04 07:00:00,58.4,56.9,29.97,NW,315,0.4,0.4,95,0.00,,,0.00,WUHU216HW,2013-10-04 11:00:00,
2013-10-04 07:05:00,58.4,56.9,29.97,NW,315,0.4,0.4,95,0.00,,,0.00,WUHU216HW,2013-10-04 11:05:00,
2013-10-04 07:30:00,58.2,57.0,29.97,NW,315,1.6,1.6,96,0.00,,,0.00,WUHU216HW,2013-10-04 11:30:00,
2013-10-04 07:35:00,58.2,57.0,29.97,NW,315,1.6,1.6,96,0.00,,,0.00,WUHU216HW,2013-10-04 11:35:00,
2013-10-04 08:00:00,60.9,59.7,29.97,NW,315,0.2,0.2,96,0.00,,,0.00,WUHU216HW,2013-10-04 12:00:00,
2013-10-04 08:05:00,60.9,59.7,29.97,NW,315,0.2,0.2,96,0.00,,,0.00,WUHU216HW,2013-10-04 12:05:00,
2013-10-04 08:30:00,61.6,59.8,29.98,WNW,293,2.7,2.7,94,0.00,,,0.00,WUHU216HW,2013-10-04 12:30:00,
2013-10-04 08:35:00,61.6,59.8,29.98,WNW,293,2.7,2.7,94,0.00,,,0.00,WUHU216HW,2013-10-04 12:35:00,
2013-10-04 09:00:00,62.9,61.1,29.98,NW,315,1.1,1.1,94,0.00,,,0.00,WUHU216HW,2013-10-04 13:00:00,
2013-10-04 09:05:00,62.9,61.1,29.98,NW,315,1.1,1.1,94,0.00,,,0.00,WUHU216HW,2013-10-04 13:05:00,
2013-10-04 09:30:00,64.9,63.4,29.98,NW,315,0.4,0.4,95,0.00,,,0.00,WUHU216HW,2013-10-04 13:30:00,
2013-10-04 09:35:00,64.9,63.4,29.98,NW,315,0.4,0.4,95,0.00,,,0.00,WUHU216HW,2013-10-04 13:35:00,
2013-10-04 10:00:00,67.2,64.8,29.97,WNW,293,0.2,0.2,92,0.00,,,0.00,WUHU216HW,2013-10-04 14:00:00,
2013-10-04 10:05:00,67.2,64.8,29.97,WNW,293,0.2,0.2,92,0.00,,,0.00,WUHU216HW,2013-10-04 14:05:00,
2013-10-04 10:30:00,70.1,66.7,29.97,NW,315,0.0,0.0,89,0.00,,,0.00,WUHU216HW,2013-10-04 14:30:00,
2013-10-04 10:35:00,70.1,66.7,29.97,NW,315,0.0,0.0,89,0.00,,,0.00,WUHU216HW,2013-10-04 14:35:00,
2013-10-04 11:00:00,72.8,68.1,29.96,SW,225,0.4,0.4,85,0.00,,,0.00,WUHU216HW,2013-10-04 15:00:00,
2013-10-04 11:05:00,72.8,68.1,29.96,SW,225,0.4,0.4,85,0.00,,,0.00,WUHU216HW,2013-10-04 15:05:00,
2013-10-04 11:30:00,75.0,67.8,29.95,SSW,203,3.1,3.1,78,0.00,,,0.00,WUHU216HW,2013-10-04 15:30:00,
2013-10-04 11:35:00,75.0,67.8,29.95,SSW,203,3.1,3.1,78,0.00,,,0.00,WUHU216HW,2013-10-04 15:35:00,
2013-10-04 12:00:00,76.4,67.7,29.95,WNW,293,3.8,3.8,74,0.00,,,0.00,WUHU216HW,2013-10-04 16:00:00,
2013-10-04 12:05:00,76.4,67.7,29.95,WNW,293,3.8,3.8,74,0.00,,,0.00,WUHU216HW,2013-10-04 16:05:00,
2013-10-04 12:30:00,77.3,68.5,29.94,WSW,248,1.6,1.6,74,0.00,,,0.00,WUHU216HW,2013-10-04 16:30:00,
2013-10-04 12:35:00,77.3,68.5,29.94,WSW,248,1.6,1.6,74,0.00,,,0.00,WUHU216HW,2013-10-04 16:35:00,
2013-10-04 13:00:00,77.7,67.3,29.93,SW,225,0.9,0.9,70,0.00,,,0.00,WUHU216HW,2013-10-04 17:00:00,
2013-10-04 13:05:00,77.7,67.3,29.93,SW,225,0.9,0.9,70,0.00,,,0.00,WUHU216HW,2013-10-04 17:05:00,
2013-10-04 13:30:00,79.3,67.6,29.92,WNW,293,0.7,0.7,67,0.00,,,0.00,WUHU216HW,2013-10-04 17:30:00,
2013-10-04 13:35:00,79.3,67.6,29.92,WNW,293,0.7,0.7,67,0.00,,,0.00,WUHU216HW,2013-10-04 17:35:00,
2013-10-04 14:00:00,80.4,66.9,29.90,WNW,293,0.0,0.0,63,0.00,,,0.00,WUHU216HW,2013-10-04 18:00:00,
2013-10-04 14:05:00,80.4,66.9,29.90,WNW,293,0.0,0.0,63,0.00,,,0.00,WUHU216HW,2013-10-04 18:05:00,
2013-10-04 14:30:00,79.6,67.5,29.90,SSW,203,2.5,2.5,66,0.00,,,0.00,WUHU216HW,2013-10-04 18:30:00,
2013-10-04 14:35:00,79.6,67.5,29.90,SSW,203,2.5,2.5,66,0.00,,,0.00,WUHU216HW,2013-10-04 18:35:00,
2013-10-04 15:00:00,81.1,67.1,29.90,SW,225,1.8,1.8,62,0.00,,,0.00,WUHU216HW,2013-10-04 19:00:00,
2013-10-04 15:05:00,81.1,67.1,29.90,SW,225,1.8,1.8,62,0.00,,,0.00,WUHU216HW,2013-10-04 19:05:00,
2013-10-04 15:30:00,82.5,68.4,29.90,West,270,0.0,0.0,62,0.00,,,0.00,WUHU216HW,2013-10-04 19:30:00,
2013-10-04 15:35:00,82.5,68.4,29.90,West,270,0.0,0.0,62,0.00,,,0.00,WUHU216HW,2013-10-04 19:35:00,
2013-10-04 16:00:00,81.4,67.8,29.90,SW,225,0.0,0.0,63,0.00,,,0.00,WUHU216HW,2013-10-04 20:00:00,
2013-10-04 16:05:00,81.4,67.8,29.90,SW,225,0.0,0.0,63,0.00,,,0.00,WUHU216HW,2013-10-04 20:05:00,
2013-10-04 16:30:00,80.9,69.2,29.90,NW,315,0.0,0.0,67,0.00,,,0.00,WUHU216HW,2013-10-04 20:30:00,
2013-10-04 16:35:00,80.9,69.2,29.90,NW,315,0.0,0.0,67,0.00,,,0.00,WUHU216HW,2013-10-04 20:35:00,
2013-10-04 17:00:00,80.7,68.5,29.90,NW,315,0.4,0.4,66,0.00,,,0.00,WUHU216HW,2013-10-04 21:00:00,
2013-10-04 17:05:00,80.7,68.5,29.90,NW,315,0.4,0.4,66,0.00,,,0.00,WUHU216HW,2013-10-04 21:05:00,
2013-10-04 17:30:00,82.5,69.8,29.90,WNW,293,0.9,0.9,65,0.00,,,0.00,WUHU216HW,2013-10-04 21:30:00,
2013-10-04 17:35:00,82.5,69.8,29.90,WNW,293,0.9,0.9,65,0.00,,,0.00,WUHU216HW,2013-10-04 21:35:00,
2013-10-04 18:00:00,82.0,68.9,29.90,WSW,248,0.0,0.0,64,0.00,,,0.00,WUHU216HW,2013-10-04 22:00:00,
2013-10-04 18:05:00,82.0,68.9,29.90,WSW,248,0.0,0.0,64,0.00,,,0.00,WUHU216HW,2013-10-04 22:05:00,
2013-10-04 18:30:00,80.0,67.9,29.91,NW,315,0.0,0.0,66,0.00,,,0.00,WUHU216HW,2013-10-04 22:30:00,
2013-10-04 18:35:00,80.0,67.9,29.91,NW,315,0.0,0.0,66,0.00,,,0.00,WUHU216HW,2013-10-04 22:35:00,
2013-10-04 19:00:00,77.7,68.5,29.91,NW,315,0.0,0.0,73,0.00,,,0.00,WUHU216HW,2013-10-04 23:00:00,
2013-10-04 19:05:00,77.7,68.5,29.91,NW,315,0.0,0.0,73,0.00,,,0.00,WUHU216HW,2013-10-04 23:05:00,
2013-10-04 19:30:00,78.6,69.0,29.91,NW,315,0.0,0.0,72,0.00,,,0.00,WUHU216HW,2013-10-04 23:30:00,
2013-10-04 19:35:00,78.6,69.0,29.91,NW,315,0.0,0.0,72,0.00,,,0.00,WUHU216HW,2013-10-04 23:35:00,
2013-10-04 20:00:00,77.3,68.5,29.92,NW,315,0.0,0.0,74,0.00,,,0.00,WUHU216HW,2013-10-05 00:00:00,
2013-10-04 20:05:00,77.3,68.5,29.92,NW,315,0.0,0.0,74,0.00,,,0.00,WUHU216HW,2013-10-05 00:05:00,
2013-10-04 20:30:00,75.5,68.3,29.93,NW,315,0.0,0.0,78,0.00,,,0.00,WUHU216HW,2013-10-05 00:30:00,
2013-10-04 20:35:00,75.5,68.3,29.93,NW,315,0.0,0.0,78,0.00,,,0.00,WUHU216HW,2013-10-05 00:35:00,
2013-10-04 21:00:00,74.4,67.6,29.94,NW,315,0.0,0.0,79,0.00,,,0.00,WUHU216HW,2013-10-05 01:00:00,
2013-10-04 21:05:00,74.4,67.6,29.94,NW,315,0.0,0.0,79,0.00,,,0.00,WUHU216HW,2013-10-05 01:05:00,
2013-10-04 21:30:00,70.6,65.2,29.95,NNW,338,1.1,1.1,83,0.00,,,0.00,WUHU216HW,2013-10-05 01:30:00,
2013-10-04 21:35:00,70.6,65.2,29.95,NNW,338,1.1,1.1,83,0.00,,,0.00,WUHU216HW,2013-10-05 01:35:00,
2013-10-04 22:00:00,69.0,64.0,29.94,NNW,338,0.0,0.0,84,0.00,,,0.00,WUHU216HW,2013-10-05 02:00:00,
2013-10-04 22:05:00,69.0,64.0,29.94,NNW,338,0.0,0.0,84,0.00,,,0.00,WUHU216HW,2013-10-05 02:05:00,
2013-10-04 22:30:00,69.4,66.0,29.94,NNW,338,0.0,0.0,89,0.02,,,0.02,WUHU216HW,2013-10-05 02:30:00,
2013-10-04 22:35:00,69.4,66.0,29.94,NNW,338,0.0,0.0,89,0.02,,,0.02,WUHU216HW,2013-10-05 02:35:00,
2013-10-04 23:00:00,70.1,65.4,29.93,NNW,338,0.0,0.0,85,0.00,,,0.02,WUHU216HW,2013-10-05 03:00:00,
2013-10-04 23:05:00,70.1,65.4,29.93,NNW,338,0.0,0.0,85,0.00,,,0.02,WUHU216HW,2013-10-05 03:05:00,
2013-10-04 23:30:00,68.8,64.5,29.94,NNW,338,0.0,0.0,86,0.00,,,0.02,WUHU216HW,2013-10-05 03:30:00,
2013-10-04 23:35:00,68.8,64.5,29.94,NNW,338,0.0,0.0,86,0.00,,,0.02,WUHU216HW,2013-10-05 03:35:00,